Regional Weather Roundup
Issued by NWS

Home | Current Version | Previous Version | Graphics & Text | Print | Product List | Glossary On
Versions: 1 2 3 4 5 6 7 8 9 10 11 12 13 14 15 16 17 18 19 20 21 22 23 24 25 26 27 28 29 30 31 32 33 34 35 36 37 38 39 40 41 42 43 44 45 46 47 48 49 50
000
ASUS43 KMKX 181400
RWRWI

WISCONSIN REGIONAL WEATHER ROUNDUP
NATIONAL WEATHER SERVICE MILWAUKEE/SULLIVAN WI
900 AM CDT SAT APR 18 2015

NOTE: "FAIR" INDICATES FEW OR NO CLOUDS BELOW 12,000 FEET WITH NO
SIGNIFICANT WEATHER AND/OR OBSTRUCTIONS TO VISIBILITY.

WIZ001-002-006>008-014>016-023>028-181500-
NORTHWEST WISCONSIN

CITY           SKY/WX    TMP DP  RH WIND       PRES   REMARKS
SUPERIOR ARPT  SUNNY     41  34  76 E13G21    30.24S
ASHLAND        SUNNY     44  34  67 NE16G23   30.24R
HAYWARD        SUNNY     47  31  53 E12       30.17F
SIREN          SUNNY     48  32  53 E12       30.15S
CUMBERLAND     MOSUNNY   46  32  57 E13G18    30.13F
RICE LAKE      MOSUNNY   50  32  49 E12       30.15F
CHETEK         MOSUNNY   50  34  55 E6G21     30.13F
LADYSMITH      SUNNY     48  33  56 E10       30.17S
EAU CLAIRE     NOT AVBL
MENOMONIE      MOSUNNY   53  32  44 E10       30.13S
NEW RICHMOND   MOSUNNY   52  32  46 E10G17    30.12S
OSCEOLA        MOSUNNY   52  33  49 E8        30.15S
$$

WIZ003>005-009-010-017-018-181500-
NORTH CENTRAL WISCONSIN

CITY           SKY/WX    TMP DP  RH WIND       PRES   REMARKS
MANITOWISH WTR SUNNY     41  33  75 E9        30.20S
ARBOR VITAE      N/A     42  32  68 E9        30.20S HAZE
WOODRUFF         N/A     42  32  68 E9        30.20S HAZE
RHINELANDER    SUNNY     44  32  62 NE12      30.18F
EAGLE RIVER    SUNNY     41  31  67 E7        30.20F
LAND O LAKES   MOSUNNY   40  32  71 SE6       30.22R
PHILLIPS       SUNNY     45  32  62 NE9       30.16F
TOMAHAWK       SUNNY     46  32  58 E12G18    30.18S
MEDFORD        MOSUNNY   49  32  52 E16       30.14S
MERRILL        SUNNY     48  34  57 E8        30.16S
$$

WIZ029-030-035-036-043>047-181500-
CENTRAL WISCONSIN

CITY           SKY/WX    TMP DP  RH WIND       PRES   REMARKS
WAUSAU         MOSUNNY   51  33  50 E10       30.15R
MOSINEE        SUNNY     50  32  50 NE14G21   30.16S
MARSHFIELD     MOSUNNY   53  31  42 E15       30.13S
STEVENS POINT  MOSUNNY   51  31  46 E13       30.16R
WAUPACA        MOSUNNY   52  33  49 NE10G18   30.18R
WAUTOMA        NOT AVBL
WISC RAPIDS    MOSUNNY   55  28  35 E12       30.15R
CAMP DOUGLAS   NOT AVBL
$$

WIZ011>013-019>022-031-037>040-048>050-181500-
NORTHEAST WISCONSIN

CITY           SKY/WX    TMP DP  RH WIND       PRES   REMARKS
ANTIGO         SUNNY     45  34  64 NE12      30.17S
SHAWANO        MOSUNNY   49  36  60 NE10G18   30.19S
OCONTO         SUNNY     48  35  59 NE8       30.19S
STURGEON BAY   SUNNY     43  34  70 N12       30.22R
GREEN BAY      MOSUNNY   49  38  65 NE22G29   30.18S
MANITOWOC      NOT AVBL
APPLETON       MOSUNNY   48  34  57 NE17G23   30.17
CLINTONVILLE   MOSUNNY   48  34  57 NE14G23   30.18R
OSHKOSH        MOSUNNY   50  38  63 NE12      30.16R
$$

WIZ032>034-041-042-053>061-181500-
SOUTHWEST WISCONSIN

CITY           SKY/WX    TMP DP  RH WIND       PRES   REMARKS
LA CROSSE      SUNNY     59  33  37 E8G20     30.08S
SPARTA         MOSUNNY   55  32  40 E15G22    30.10F
VIROQUA        SUNNY     57  33  41 E23       30.07S
BOSCOBEL       SUNNY     62  41  46 NE9       30.07R
PRAIRIE DU CHI MOSUNNY   55  47  73 CALM      30.04F
PLATTEVILLE    MOSUNNY   64  39  40 E17       30.04S
$$

WIZ056-057-062-063-064-067-068-181500-
SOUTH CENTRAL WISCONSIN

CITY           SKY/WX    TMP DP  RH WIND       PRES   REMARKS
REEDSBURG      SUNNY     54  35  48 E16G22    30.11S
BARABOO/DELLS  SUNNY     54  36  50 E14G21    30.11S
LONE ROCK      NOT AVBL
MINERAL POINT  MOSUNNY   63  36  36 NE15G21   30.05S
MADISON        PTSUNNY   58  39  49 NE21      30.09S
MIDDLETON      MOSUNNY   58  41  52 E13       30.10S
WATERTOWN      SUNNY     54  37  51 NE15G21   30.11R
MONROE         MOSUNNY   61  43  51 NE14G21   30.06R
JANESVILLE     NOT AVBL
$$

WIZ051-052-058>065-066-070>072-181500-
SOUTHEAST WISCONSIN

CITY           SKY/WX    TMP DP  RH WIND       PRES   REMARKS
MILWAUKEE      MOSUNNY   45  35  68 N25G32    30.13S
WAUKESHA       MOSUNNY   50  34  53 NE17G23   30.12F
MILWAUKEE/TIMM SUNNY     48  34  57 NE16G28   30.14S
RACINE         SUNNY     46  35  65 N24G32    30.12S
BURLINGTON     SUNNY     53  33  46 NE14G26   30.10R
KENOSHA        SUNNY     53  36  52 NE20G26   30.10S
FOND DU LAC    MOSUNNY   52  36  54 NE15      30.15S
SHEBOYGAN      SUNNY     51  38  60 NE22G29   30.16R
WEST BEND      SUNNY     50  34  53 NE21G28   30.14S
JUNEAU         SUNNY     54  35  49 NE14G21   30.13S
$$

LSZ147-162-181500-
LAKE SUPERIOR

STATION/POSITION TIME  TEMP    WIND        PRES    WAVE
                       AIR SEA DIR/SP/G            HT/PER
                 (UTC) (F)     (DEG/KT/KT) (MB)    (FT/S)
DEVILS ISLAND    1300   37      80/ 14/ 15 1025.3R
PORT WING        1340   45      70/  8/ 18 1024.0R
SAXON HARBOR     1300   42      60/ 10/ 12 1023.4R
$$

LMZ867-665-643>646-181500-
LAKE MICHIGAN

STATION/POSITION TIME  TEMP    WIND        PRES    WAVE
                       AIR SEA DIR/SP/G            HT/PER
                 (UTC) (F)     (DEG/KT/KT) (MB)    (FT/S)
CHAMBERS ISLAND  1300   41     360/ 14/ 19 1023.0R
NORTHPORT PIER   1301   39     350/ 12/ 24 1022.7R
SISTER BAY       1217   43      10/ 20/ 30   N/A
KEWAUNEE LAKESHO 1300   46      30/ 14/ 18 1020.8R
SHEBOYGAN LAKESH 1300   42     360/ 19/ 21 1021.7R
PORT WASHINGTON  1300   48      30/ 14     1021.3R
MILWAUKEE LAKESH 1300           10/ 23/ 31   N/A
KENOSHA   LAKESH 1300   47      10/ 28/ 32 1018.6R
$$

TC  - TEMPERATURE IN CELSIUS
VSB - VISIBILITY IN STATUTE MILES
WCI - WIND CHILL INDEX
HX  - HEAT INDEX




USA.gov is the U.S. government's official web portal to all federal, state and local government web resources and services.